Time,TemperatureF,DewpointF,PressureIn,WindDirection,WindDirectionDegrees,WindSpeedMPH,WindSpeedGustMPH,Humidity,HourlyPrecipIn,Conditions,Clouds,dailyrainin,SolarRadiationWatts/m^2,SoftwareType,DateUTC
2013-08-23 00:02:00,73.0,45.0,-100.00,ENE,70,4.0,14.0,37,-99.99,,,0.00,0.000000,,2013-08-23 06:02:00,
2013-08-23 00:42:00,68.0,49.0,-100.00,WSW,252,14.0,22.0,50,0.00,,,-99.99,0.000000,,2013-08-23 06:42:00,
2013-08-23 00:52:00,68.0,49.0,-100.00,WSW,252,14.0,22.0,50,0.00,,,-99.99,0.000000,,2013-08-23 06:52:00,
2013-08-23 01:01:00,68.0,49.0,-100.00,WSW,252,14.0,22.0,50,0.00,,,-99.99,0.000000,,2013-08-23 07:01:00,
2013-08-23 01:42:00,65.0,49.0,-100.00,SE,139,9.0,35.0,56,0.03,,,0.03,0.000000,,2013-08-23 07:42:00,
2013-08-23 01:52:00,65.0,49.0,-100.00,SE,139,9.0,35.0,56,0.03,,,0.03,0.000000,,2013-08-23 07:52:00,
2013-08-23 02:02:00,65.0,49.0,-100.00,SE,139,9.0,35.0,56,0.03,,,0.03,0.000000,,2013-08-23 08:02:00,
2013-08-23 02:42:00,66.0,51.0,-100.00,SW,235,6.0,13.0,58,0.00,,,-99.99,0.000000,,2013-08-23 08:42:00,
2013-08-23 02:52:00,66.0,51.0,-100.00,SW,235,6.0,13.0,58,0.00,,,-99.99,0.000000,,2013-08-23 08:52:00,
2013-08-23 03:01:00,66.0,51.0,-100.00,SW,235,6.0,13.0,58,0.00,,,-99.99,0.000000,,2013-08-23 09:01:00,
2013-08-23 03:03:00,68.0,48.0,-100.00,SW,223,9.0,15.0,49,0.00,,,0.03,0.000000,,2013-08-23 09:03:00,
2013-08-23 03:43:00,68.0,48.0,-100.00,SW,223,9.0,15.0,49,0.00,,,0.03,0.000000,,2013-08-23 09:43:00,
2013-08-23 03:53:00,68.0,48.0,-100.00,SW,223,9.0,15.0,49,0.00,,,0.03,0.000000,,2013-08-23 09:53:00,
2013-08-23 04:42:00,66.0,46.0,-100.00,SW,218,11.0,18.0,49,0.00,,,0.03,0.000000,,2013-08-23 10:42:00,
2013-08-23 04:52:00,66.0,46.0,-100.00,SW,218,11.0,18.0,49,0.00,,,0.03,0.000000,,2013-08-23 10:52:00,
2013-08-23 05:02:00,66.0,46.0,-100.00,SW,218,11.0,18.0,49,0.00,,,0.03,0.000000,,2013-08-23 11:02:00,
2013-08-23 05:42:00,60.0,49.0,-100.00,SSE,147,10.0,22.0,68,0.00,,,0.03,0.000000,,2013-08-23 11:42:00,
2013-08-23 05:53:00,60.0,49.0,-100.00,SSE,147,10.0,22.0,68,0.00,,,0.03,0.000000,,2013-08-23 11:53:00,
2013-08-23 06:01:00,60.0,49.0,-100.00,SSE,147,10.0,22.0,68,0.00,,,0.03,0.000000,,2013-08-23 12:01:00,
2013-08-23 06:22:00,64.0,50.0,-100.00,South,169,9.0,20.0,61,0.00,,,0.03,0.000000,,2013-08-23 12:22:00,
2013-08-23 06:32:00,64.0,50.0,-100.00,South,169,9.0,20.0,61,0.00,,,0.03,0.000000,,2013-08-23 12:32:00,
2013-08-23 06:42:00,64.0,50.0,-100.00,South,169,9.0,20.0,61,0.00,,,0.03,0.000000,,2013-08-23 12:42:00,
2013-08-23 06:52:00,64.0,50.0,-100.00,South,169,9.0,20.0,61,0.00,,,0.03,0.000000,,2013-08-23 12:52:00,
2013-08-23 07:02:00,64.0,50.0,-100.00,South,169,9.0,20.0,61,0.00,,,0.03,0.000000,,2013-08-23 13:02:00,
2013-08-23 07:42:00,60.0,47.0,-100.00,WSW,240,6.0,14.0,63,0.00,,,0.03,3.000000,,2013-08-23 13:42:00,
2013-08-23 07:52:00,60.0,47.0,-100.00,WSW,240,6.0,14.0,63,0.00,,,0.03,3.000000,,2013-08-23 13:52:00,
2013-08-23 08:02:00,60.0,47.0,-100.00,WSW,240,6.0,14.0,63,0.00,,,0.03,3.000000,,2013-08-23 14:02:00,
2013-08-23 08:42:00,63.0,48.0,-100.00,South,175,1.0,10.0,57,0.00,,,0.03,56.000000,,2013-08-23 14:42:00,
2013-08-23 08:52:00,63.0,48.0,-100.00,South,175,1.0,10.0,57,0.00,,,0.03,56.000000,,2013-08-23 14:52:00,
2013-08-23 09:01:00,63.0,48.0,-100.00,South,175,1.0,10.0,57,0.00,,,0.03,56.000000,,2013-08-23 15:01:00,
2013-08-23 09:03:00,69.0,51.0,-100.00,East,84,3.0,8.0,53,0.00,,,0.03,203.000000,,2013-08-23 15:03:00,
2013-08-23 09:54:00,69.0,51.0,-100.00,East,84,3.0,8.0,53,0.00,,,0.03,203.000000,,2013-08-23 15:54:00,
2013-08-23 10:03:00,73.0,55.0,-100.00,East,84,3.0,8.0,53,0.00,,,0.03,452.000000,,2013-08-23 16:03:00,
2013-08-23 10:42:00,73.0,55.0,-100.00,East,84,3.0,8.0,53,0.00,,,0.03,452.000000,,2013-08-23 16:42:00,
2013-08-23 10:53:00,73.0,55.0,-100.00,East,84,3.0,8.0,53,0.00,,,0.03,452.000000,,2013-08-23 16:53:00,
2013-08-23 11:24:00,68.0,54.0,-100.00,North,349,10.0,15.0,61,0.02,,,0.05,378.000000,,2013-08-23 17:24:00,
2013-08-23 11:34:00,68.0,54.0,-100.00,North,349,10.0,15.0,61,0.02,,,0.05,378.000000,,2013-08-23 17:34:00,
2013-08-23 11:43:00,68.0,54.0,-100.00,North,349,10.0,15.0,61,0.02,,,0.05,378.000000,,2013-08-23 17:43:00,
2013-08-23 11:53:00,68.0,54.0,-100.00,North,349,10.0,15.0,61,0.02,,,0.05,378.000000,,2013-08-23 17:53:00,
2013-08-23 12:02:00,68.0,54.0,-100.00,North,349,10.0,15.0,61,0.02,,,0.05,378.000000,,2013-08-23 18:02:00,
2013-08-23 12:42:00,73.0,53.0,-100.00,NE,54,9.0,19.0,49,0.00,,,0.05,751.000000,,2013-08-23 18:42:00,
2013-08-23 12:52:00,73.0,53.0,-100.00,NE,54,9.0,19.0,49,0.00,,,0.05,751.000000,,2013-08-23 18:52:00,
2013-08-23 13:01:00,73.0,53.0,-100.00,NE,54,9.0,19.0,49,0.00,,,0.05,751.000000,,2013-08-23 19:01:00,
2013-08-23 13:22:00,81.0,52.0,-100.00,NNW,335,2.0,14.0,36,0.00,,,0.05,936.000000,,2013-08-23 19:22:00,
2013-08-23 13:32:00,81.0,52.0,-100.00,NNW,335,2.0,14.0,36,0.00,,,0.05,936.000000,,2013-08-23 19:32:00,
2013-08-23 13:42:00,81.0,52.0,-100.00,NNW,335,2.0,14.0,36,0.00,,,0.05,936.000000,,2013-08-23 19:42:00,
2013-08-23 13:52:00,81.0,52.0,-100.00,NNW,335,2.0,14.0,36,0.00,,,0.05,936.000000,,2013-08-23 19:52:00,
2013-08-23 14:01:00,81.0,52.0,-100.00,NNW,335,2.0,14.0,36,0.00,,,0.05,936.000000,,2013-08-23 20:01:00,
2013-08-23 14:42:00,82.0,47.0,-100.00,SW,233,3.0,11.0,29,0.00,,,0.05,918.000000,,2013-08-23 20:42:00,
2013-08-23 14:52:00,82.0,47.0,-100.00,SW,233,3.0,11.0,29,0.00,,,0.05,918.000000,,2013-08-23 20:52:00,
2013-08-23 15:02:00,82.0,47.0,-100.00,SW,233,3.0,11.0,29,0.00,,,0.05,918.000000,,2013-08-23 21:02:00,
2013-08-23 15:03:00,82.0,46.0,-100.00,South,173,0.0,7.0,28,0.00,,,0.05,363.000000,,2013-08-23 21:03:00,
2013-08-23 15:44:00,82.0,46.0,-100.00,South,173,0.0,7.0,28,0.00,,,0.05,363.000000,,2013-08-23 21:44:00,
2013-08-23 15:54:00,82.0,46.0,-100.00,South,173,0.0,7.0,28,0.00,,,0.05,363.000000,,2013-08-23 21:54:00,
2013-08-23 16:03:00,74.0,42.0,-100.00,SSW,202,22.0,32.0,32,0.00,,,0.05,85.000000,,2013-08-23 22:03:00,
2013-08-23 16:43:00,74.0,42.0,-100.00,SSW,202,22.0,32.0,32,0.00,,,0.05,85.000000,,2013-08-23 22:43:00,
2013-08-23 16:53:00,74.0,42.0,-100.00,SSW,202,22.0,32.0,32,0.00,,,0.05,85.000000,,2013-08-23 22:53:00,
2013-08-23 17:43:00,71.0,43.0,-100.00,SSW,202,7.0,43.0,36,0.00,,,0.05,38.000000,,2013-08-23 23:43:00,
2013-08-23 17:54:00,71.0,43.0,-100.00,SSW,202,7.0,43.0,36,0.00,,,0.05,38.000000,,2013-08-23 23:54:00,
2013-08-23 18:02:00,71.0,43.0,-100.00,SSW,202,7.0,43.0,36,0.00,,,0.05,38.000000,,2013-08-24 00:02:00,
2013-08-23 18:22:00,74.0,44.0,-100.00,SSW,205,10.0,26.0,34,0.00,,,0.05,223.000000,,2013-08-24 00:22:00,
2013-08-23 18:32:00,74.0,44.0,-100.00,SSW,205,10.0,26.0,34,0.00,,,0.05,223.000000,,2013-08-24 00:32:00,
2013-08-23 18:43:00,74.0,44.0,-100.00,SSW,205,10.0,26.0,34,0.00,,,0.05,223.000000,,2013-08-24 00:43:00,
2013-08-23 18:53:00,74.0,44.0,-100.00,SSW,205,10.0,26.0,34,0.00,,,0.05,223.000000,,2013-08-24 00:53:00,
2013-08-23 19:02:00,74.0,44.0,-100.00,SSW,205,10.0,26.0,34,0.00,,,0.05,223.000000,,2013-08-24 01:02:00,
2013-08-23 19:42:00,71.0,46.0,-100.00,SW,222,15.0,24.0,41,0.00,,,0.05,155.000000,,2013-08-24 01:42:00,
2013-08-23 19:53:00,71.0,46.0,-100.00,SW,222,15.0,24.0,41,0.00,,,0.05,155.000000,,2013-08-24 01:53:00,
2013-08-23 20:02:00,71.0,46.0,-100.00,SW,222,15.0,24.0,41,0.00,,,0.05,155.000000,,2013-08-24 02:02:00,
2013-08-23 20:42:00,68.0,45.0,-100.00,WSW,248,11.0,34.0,43,0.00,,,0.05,46.000000,,2013-08-24 02:42:00,
2013-08-23 20:52:00,68.0,45.0,-100.00,WSW,248,11.0,34.0,43,0.00,,,0.05,46.000000,,2013-08-24 02:52:00,
2013-08-23 21:02:00,68.0,45.0,-100.00,WSW,248,11.0,34.0,43,0.00,,,0.05,46.000000,,2013-08-24 03:02:00,
2013-08-23 21:03:00,67.0,48.0,-100.00,South,189,8.0,26.0,51,0.00,,,0.05,3.000000,,2013-08-24 03:03:00,
2013-08-23 21:44:00,67.0,48.0,-100.00,South,189,8.0,26.0,51,0.00,,,0.05,3.000000,,2013-08-24 03:44:00,
2013-08-23 21:54:00,67.0,48.0,-100.00,South,189,8.0,26.0,51,0.00,,,0.05,3.000000,,2013-08-24 03:54:00,
2013-08-23 22:03:00,68.0,46.0,-100.00,SW,217,7.0,12.0,46,0.00,,,0.05,0.000000,,2013-08-24 04:03:00,
2013-08-23 22:44:00,68.0,46.0,-100.00,SW,217,7.0,12.0,46,0.00,,,0.05,0.000000,,2013-08-24 04:44:00,
2013-08-23 22:53:00,68.0,46.0,-100.00,SW,217,7.0,12.0,46,0.00,,,0.05,0.000000,,2013-08-24 04:53:00,
2013-08-23 23:43:00,66.0,46.0,-100.00,SSE,149,9.0,13.0,48,0.00,,,0.05,0.000000,,2013-08-24 05:43:00,
2013-08-23 23:53:00,66.0,46.0,-100.00,SSE,149,9.0,13.0,48,0.00,,,0.05,0.000000,,2013-08-24 05:53:00,